Time,TemperatureF,DewpointF,PressureIn,WindDirection,WindDirectionDegrees,WindSpeedMPH,WindSpeedGustMPH,Humidity,HourlyPrecipIn,Conditions,Clouds,dailyrainin,SoftwareType,DateUTC
2013-03-18 00:02:00,40.0,36.0,30.19,East,84,0.0,0.0,87,0.00,,,0.02,,2013-03-18 07:02:00,
2013-03-18 00:12:00,40.0,36.0,30.19,East,84,0.0,0.0,87,0.00,,,0.02,,2013-03-18 07:12:00,
2013-03-18 00:22:00,40.0,36.0,30.19,East,84,0.0,0.0,87,0.00,,,0.02,,2013-03-18 07:22:00,
2013-03-18 00:32:00,40.0,36.0,30.19,East,84,0.0,0.0,87,0.00,,,0.02,,2013-03-18 07:32:00,
2013-03-18 00:42:00,40.0,36.0,30.19,East,84,0.0,0.0,87,0.00,,,0.02,,2013-03-18 07:42:00,
2013-03-18 00:52:00,40.0,37.0,30.19,East,84,0.0,0.0,88,0.00,,,0.02,,2013-03-18 07:52:00,
2013-03-18 01:02:00,40.0,37.0,30.18,East,84,0.0,0.0,88,0.00,,,0.02,,2013-03-18 08:02:00,
2013-03-18 01:11:00,40.0,37.0,30.18,East,84,0.0,0.0,88,0.00,,,0.02,,2013-03-18 08:11:00,
2013-03-18 01:22:00,39.0,36.0,30.18,East,84,0.0,0.0,88,0.00,,,0.02,,2013-03-18 08:22:00,
2013-03-18 01:32:00,39.0,36.0,30.18,East,84,0.0,0.0,89,0.00,,,0.02,,2013-03-18 08:32:00,
2013-03-18 01:42:00,39.0,36.0,30.18,East,84,0.0,0.0,89,0.00,,,0.02,,2013-03-18 08:42:00,
2013-03-18 01:52:00,39.0,36.0,30.18,East,84,0.0,0.0,89,0.00,,,0.01,,2013-03-18 08:52:00,
2013-03-18 02:02:00,38.0,35.0,30.18,East,84,0.0,0.0,89,0.00,,,0.01,,2013-03-18 09:02:00,
2013-03-18 02:11:00,38.0,35.0,30.18,East,84,0.0,0.0,89,0.00,,,0.01,,2013-03-18 09:11:00,
2013-03-18 02:22:00,38.0,35.0,30.18,East,84,0.0,0.0,90,0.00,,,0.01,,2013-03-18 09:22:00,
2013-03-18 02:32:00,37.0,34.0,30.18,East,87,0.0,0.0,90,0.00,,,0.01,,2013-03-18 09:32:00,
2013-03-18 02:42:00,37.0,34.0,30.18,East,87,0.0,0.0,90,0.00,,,0.01,,2013-03-18 09:42:00,
2013-03-18 02:53:00,37.0,34.0,30.18,East,88,0.0,0.0,90,0.00,,,0.01,,2013-03-18 09:53:00,
2013-03-18 03:03:00,37.0,34.0,30.18,East,88,0.0,0.0,90,0.00,,,0.01,,2013-03-18 10:03:00,
2013-03-18 03:12:00,37.0,34.0,30.18,East,88,0.0,0.0,90,0.00,,,0.01,,2013-03-18 10:12:00,
2013-03-18 03:23:00,37.0,34.0,30.18,East,93,0.0,0.0,90,0.00,,,0.01,,2013-03-18 10:23:00,
2013-03-18 03:33:00,36.0,34.0,30.18,SE,124,0.0,0.0,91,0.00,,,0.01,,2013-03-18 10:33:00,
2013-03-18 03:42:00,36.0,34.0,30.18,SE,124,0.0,0.0,91,0.00,,,0.01,,2013-03-18 10:42:00,
2013-03-18 03:52:00,36.0,34.0,30.18,SE,129,0.0,0.0,91,0.00,,,0.01,,2013-03-18 10:52:00,
2013-03-18 04:03:00,36.0,34.0,30.18,SE,145,0.0,0.0,91,0.00,,,0.01,,2013-03-18 11:03:00,
2013-03-18 04:12:00,36.0,34.0,30.18,SE,145,0.0,0.0,91,0.00,,,0.01,,2013-03-18 11:12:00,
2013-03-18 04:22:00,36.0,34.0,30.18,ESE,119,0.0,0.0,91,0.00,,,0.01,,2013-03-18 11:22:00,
2013-03-18 04:32:00,35.0,33.0,30.18,SE,143,0.0,0.0,91,0.00,,,0.01,,2013-03-18 11:32:00,
2013-03-18 04:42:00,35.0,33.0,30.18,SE,143,0.0,0.0,91,0.00,,,0.01,,2013-03-18 11:42:00,
2013-03-18 04:52:00,35.0,33.0,30.18,ESE,121,0.0,0.0,91,0.01,,,0.02,,2013-03-18 11:52:00,
2013-03-18 05:02:00,34.0,32.0,30.18,East,97,0.0,0.0,92,0.01,,,0.02,,2013-03-18 12:02:00,
2013-03-18 05:12:00,34.0,32.0,30.18,East,97,0.0,0.0,92,0.01,,,0.02,,2013-03-18 12:12:00,
2013-03-18 05:22:00,34.0,32.0,30.18,SE,141,0.0,0.0,92,0.01,,,0.02,,2013-03-18 12:22:00,
2013-03-18 05:32:00,34.0,32.0,30.18,East,99,0.0,0.0,92,0.01,,,0.02,,2013-03-18 12:32:00,
2013-03-18 05:42:00,34.0,32.0,30.18,East,99,0.0,0.0,92,0.01,,,0.02,,2013-03-18 12:42:00,
2013-03-18 05:51:00,34.0,32.0,30.18,ESE,103,0.0,0.0,92,0.00,,,0.02,,2013-03-18 12:51:00,
2013-03-18 06:02:00,33.0,31.0,30.18,ESE,114,0.0,0.0,92,0.00,,,0.02,,2013-03-18 13:02:00,
2013-03-18 06:11:00,33.0,31.0,30.18,ESE,114,0.0,0.0,92,0.00,,,0.02,,2013-03-18 13:11:00,
2013-03-18 06:22:00,33.0,31.0,30.19,ESE,113,0.0,0.0,92,0.00,,,0.02,,2013-03-18 13:22:00,
2013-03-18 06:32:00,33.0,31.0,30.20,East,95,0.0,0.0,92,0.00,,,0.02,,2013-03-18 13:32:00,
2013-03-18 06:42:00,33.0,31.0,30.20,East,95,0.0,0.0,92,0.00,,,0.02,,2013-03-18 13:42:00,
2013-03-18 06:52:00,33.0,31.0,30.20,ESE,119,0.0,0.0,92,0.00,,,0.02,,2013-03-18 13:52:00,
2013-03-18 07:02:00,33.0,31.0,30.20,East,93,0.0,0.0,92,0.00,,,0.02,,2013-03-18 14:02:00,
2013-03-18 07:11:00,33.0,31.0,30.20,East,93,0.0,0.0,92,0.00,,,0.02,,2013-03-18 14:11:00,
2013-03-18 07:22:00,33.0,31.0,30.20,ESE,110,0.0,0.0,92,0.00,,,0.02,,2013-03-18 14:22:00,
2013-03-18 07:32:00,33.0,31.0,30.20,ESE,109,0.0,0.0,92,0.00,,,0.02,,2013-03-18 14:32:00,
2013-03-18 07:42:00,33.0,31.0,30.20,ESE,109,0.0,0.0,92,0.00,,,0.02,,2013-03-18 14:42:00,
2013-03-18 07:52:00,33.0,31.0,30.19,SE,126,0.0,0.0,92,0.00,,,0.02,,2013-03-18 14:52:00,
2013-03-18 08:02:00,33.0,31.0,30.19,ESE,110,0.0,0.0,93,0.00,,,0.02,,2013-03-18 15:02:00,
2013-03-18 08:12:00,33.0,31.0,30.19,ESE,110,0.0,0.0,93,0.00,,,0.02,,2013-03-18 15:12:00,
2013-03-18 08:22:00,33.0,31.0,30.19,SE,129,0.0,0.0,93,0.00,,,0.02,,2013-03-18 15:22:00,
2013-03-18 08:33:00,33.0,31.0,30.20,SE,139,0.0,0.0,93,0.00,,,0.02,,2013-03-18 15:33:00,
2013-03-18 08:42:00,33.0,31.0,30.20,SE,139,0.0,0.0,93,0.00,,,0.02,,2013-03-18 15:42:00,
2013-03-18 08:52:00,34.0,32.0,30.19,SE,136,0.0,0.0,93,0.00,,,0.02,,2013-03-18 15:52:00,
2013-03-18 09:02:00,35.0,33.0,30.20,East,95,0.0,0.0,93,0.00,,,0.02,,2013-03-18 16:02:00,
2013-03-18 09:12:00,35.0,33.0,30.20,East,95,0.0,0.0,93,0.00,,,0.02,,2013-03-18 16:12:00,
2013-03-18 09:22:00,36.0,34.0,30.20,ESE,111,0.0,0.0,92,0.00,,,0.02,,2013-03-18 16:22:00,
2013-03-18 09:32:00,37.0,34.0,30.21,SE,145,0.0,0.0,90,0.00,,,0.02,,2013-03-18 16:32:00,
2013-03-18 09:42:00,37.0,34.0,30.21,SE,145,0.0,0.0,90,0.00,,,0.02,,2013-03-18 16:42:00,
2013-03-18 09:52:00,38.0,35.0,30.21,ESE,122,0.0,0.0,88,0.00,,,0.02,,2013-03-18 16:52:00,
2013-03-18 10:02:00,40.0,35.0,30.22,ESE,120,0.0,0.0,83,0.00,,,0.02,,2013-03-18 17:02:00,
2013-03-18 10:12:00,40.0,35.0,30.22,ESE,120,0.0,0.0,83,0.00,,,0.02,,2013-03-18 17:12:00,
2013-03-18 10:22:00,40.0,34.0,30.22,SSE,155,0.0,0.0,80,0.00,,,0.02,,2013-03-18 17:22:00,
2013-03-18 10:32:00,41.0,34.0,30.23,South,174,0.0,0.0,77,0.00,,,0.02,,2013-03-18 17:32:00,
2013-03-18 10:42:00,41.0,34.0,30.23,South,174,0.0,0.0,77,0.00,,,0.02,,2013-03-18 17:42:00,
2013-03-18 10:52:00,42.0,35.0,30.22,SW,235,0.0,0.0,75,0.00,,,0.02,,2013-03-18 17:52:00,
2013-03-18 11:02:00,43.0,35.0,30.22,South,182,0.0,0.0,72,0.00,,,0.02,,2013-03-18 18:02:00,
2013-03-18 11:12:00,43.0,35.0,30.22,South,182,0.0,0.0,72,0.00,,,0.02,,2013-03-18 18:12:00,
2013-03-18 11:22:00,43.0,34.0,30.21,SW,224,0.0,0.0,71,0.00,,,0.02,,2013-03-18 18:22:00,
2013-03-18 11:32:00,44.0,34.0,30.21,SW,226,0.0,0.0,67,0.00,,,0.02,,2013-03-18 18:32:00,
2013-03-18 11:42:00,44.0,34.0,30.21,SW,226,0.0,0.0,67,0.00,,,0.02,,2013-03-18 18:42:00,
2013-03-18 11:52:00,45.0,34.0,30.22,South,188,0.0,0.0,65,0.00,,,0.02,,2013-03-18 18:52:00,
2013-03-18 12:02:00,46.0,34.0,30.21,SW,220,0.0,0.0,63,0.00,,,0.02,,2013-03-18 19:02:00,
2013-03-18 12:12:00,46.0,34.0,30.21,SW,220,0.0,0.0,63,0.00,,,0.02,,2013-03-18 19:12:00,
2013-03-18 12:22:00,46.0,33.0,30.21,SW,236,0.0,0.0,60,0.00,,,0.02,,2013-03-18 19:22:00,
2013-03-18 12:32:00,47.0,33.0,30.20,SW,218,0.0,0.0,58,0.00,,,0.02,,2013-03-18 19:32:00,
2013-03-18 12:42:00,47.0,33.0,30.20,SW,218,0.0,0.0,58,0.00,,,0.02,,2013-03-18 19:42:00,
2013-03-18 12:52:00,47.0,33.0,30.19,SSW,203,0.0,0.0,57,0.00,,,0.02,,2013-03-18 19:52:00,
2013-03-18 13:02:00,48.0,33.0,30.19,South,185,0.0,0.0,56,0.00,,,0.02,,2013-03-18 20:02:00,
2013-03-18 13:11:00,48.0,33.0,30.19,South,185,0.0,0.0,56,0.00,,,0.02,,2013-03-18 20:11:00,
2013-03-18 13:22:00,48.0,33.0,30.19,WNW,301,0.0,0.0,55,0.00,,,0.02,,2013-03-18 20:22:00,
2013-03-18 13:32:00,49.0,32.0,30.18,SE,124,0.0,0.0,52,0.00,,,0.02,,2013-03-18 20:32:00,
2013-03-18 13:42:00,49.0,32.0,30.18,SE,124,0.0,0.0,52,0.00,,,0.02,,2013-03-18 20:42:00,
2013-03-18 13:52:00,49.0,32.0,30.18,ENE,66,0.0,0.0,52,0.00,,,0.02,,2013-03-18 20:52:00,
2013-03-18 14:02:00,50.0,32.0,30.18,WSW,240,0.0,0.0,49,0.00,,,0.02,,2013-03-18 21:02:00,
2013-03-18 14:11:00,50.0,32.0,30.18,WSW,240,0.0,0.0,49,0.00,,,0.02,,2013-03-18 21:11:00,
2013-03-18 14:22:00,51.0,33.0,30.17,SSW,205,0.0,0.0,49,0.00,,,0.02,,2013-03-18 21:22:00,
2013-03-18 14:32:00,51.0,33.0,30.17,North,0,0.0,0.0,50,0.00,,,0.02,,2013-03-18 21:32:00,
2013-03-18 14:42:00,51.0,33.0,30.17,North,0,0.0,0.0,50,0.00,,,0.02,,2013-03-18 21:42:00,
2013-03-18 14:52:00,51.0,33.0,30.16,NW,315,0.0,0.0,49,0.00,,,0.02,,2013-03-18 21:52:00,
2013-03-18 15:03:00,51.0,33.0,30.15,North,351,0.0,0.0,49,0.00,,,0.02,,2013-03-18 22:03:00,
2013-03-18 15:12:00,51.0,33.0,30.15,North,351,0.0,0.0,49,0.00,,,0.02,,2013-03-18 22:12:00,
2013-03-18 15:22:00,51.0,32.0,30.15,North,356,0.0,0.0,48,0.00,,,0.02,,2013-03-18 22:22:00,
2013-03-18 15:32:00,52.0,32.0,30.15,North,358,0.0,0.0,47,0.00,,,0.01,,2013-03-18 22:32:00,
2013-03-18 15:42:00,52.0,32.0,30.15,North,358,0.0,0.0,47,0.00,,,0.01,,2013-03-18 22:42:00,
2013-03-18 15:52:00,52.0,32.0,30.14,NNW,347,0.0,0.0,47,0.00,,,0.01,,2013-03-18 22:52:00,
2013-03-18 16:02:00,52.0,33.0,30.14,NNW,333,0.0,0.0,48,0.00,,,0.01,,2013-03-18 23:02:00,
2013-03-18 16:12:00,52.0,33.0,30.14,NNW,333,0.0,0.0,48,0.00,,,0.01,,2013-03-18 23:12:00,
2013-03-18 16:22:00,53.0,34.0,30.14,NNW,347,0.0,0.0,48,0.00,,,0.01,,2013-03-18 23:22:00,
2013-03-18 16:32:00,53.0,34.0,30.14,North,0,0.0,0.0,48,0.00,,,0.01,,2013-03-18 23:32:00,
2013-03-18 16:42:00,53.0,34.0,30.14,North,0,0.0,0.0,48,0.00,,,0.01,,2013-03-18 23:42:00,
2013-03-18 16:52:00,53.0,34.0,30.13,North,358,0.0,0.0,48,0.00,,,0.01,,2013-03-18 23:52:00,
2013-03-18 17:02:00,52.0,33.0,30.13,NNE,17,0.0,0.0,49,0.00,,,0.01,,2013-03-19 00:02:00,
2013-03-18 17:12:00,52.0,33.0,30.13,NNE,17,0.0,0.0,49,0.00,,,0.01,,2013-03-19 00:12:00,
2013-03-18 17:22:00,52.0,34.0,30.14,NNE,13,0.0,0.0,50,0.00,,,0.01,,2013-03-19 00:22:00,
2013-03-18 17:32:00,52.0,34.0,30.13,North,358,0.0,0.0,50,0.00,,,0.01,,2013-03-19 00:32:00,
2013-03-18 17:42:00,52.0,34.0,30.13,North,358,0.0,0.0,50,0.00,,,0.01,,2013-03-19 00:42:00,
2013-03-18 17:52:00,52.0,34.0,30.13,North,1,0.0,0.0,50,0.00,,,0.01,,2013-03-19 00:52:00,
2013-03-18 18:02:00,52.0,34.0,30.12,North,0,0.0,0.0,50,0.00,,,0.01,,2013-03-19 01:02:00,
2013-03-18 18:11:00,52.0,34.0,30.12,North,0,0.0,0.0,50,0.00,,,0.01,,2013-03-19 01:11:00,
2013-03-18 18:22:00,52.0,34.0,30.12,North,0,0.0,0.0,50,0.00,,,0.01,,2013-03-19 01:22:00,
2013-03-18 18:32:00,51.0,33.0,30.11,North,7,0.0,0.0,50,0.00,,,0.01,,2013-03-19 01:32:00,
2013-03-18 18:42:00,51.0,33.0,30.11,North,7,0.0,0.0,50,0.00,,,0.01,,2013-03-19 01:42:00,
2013-03-18 18:52:00,51.0,33.0,30.10,North,0,0.0,0.0,50,0.00,,,0.01,,2013-03-19 01:52:00,
2013-03-18 19:02:00,50.0,32.0,30.10,NNE,20,0.0,0.0,50,0.00,,,0.01,,2013-03-19 02:02:00,
2013-03-18 19:11:00,50.0,32.0,30.10,NNE,20,0.0,0.0,50,0.00,,,0.01,,2013-03-19 02:11:00,
2013-03-18 19:22:00,50.0,33.0,30.10,NNE,21,0.0,0.0,51,0.00,,,0.01,,2013-03-19 02:22:00,
2013-03-18 19:32:00,49.0,33.0,30.09,NE,34,0.0,0.0,53,0.00,,,0.01,,2013-03-19 02:32:00,
2013-03-18 19:42:00,49.0,33.0,30.09,NE,34,0.0,0.0,53,0.00,,,0.01,,2013-03-19 02:42:00,
2013-03-18 19:52:00,49.0,34.0,30.09,NNE,33,0.0,0.0,55,0.00,,,0.01,,2013-03-19 02:52:00,
2013-03-18 20:02:00,47.0,33.0,30.09,NE,40,0.0,0.0,59,0.00,,,0.01,,2013-03-19 03:02:00,
2013-03-18 20:11:00,47.0,33.0,30.09,NE,40,0.0,0.0,59,0.00,,,0.01,,2013-03-19 03:11:00,
2013-03-18 20:22:00,46.0,33.0,30.09,NNE,31,0.0,0.0,60,0.00,,,0.01,,2013-03-19 03:22:00,
2013-03-18 20:32:00,45.0,32.0,30.09,NNE,23,0.0,0.0,61,0.00,,,0.01,,2013-03-19 03:32:00,
2013-03-18 20:42:00,45.0,32.0,30.09,NNE,23,0.0,0.0,61,0.00,,,0.01,,2013-03-19 03:42:00,
2013-03-18 20:53:00,45.0,33.0,30.09,NE,36,0.0,0.0,63,0.00,,,0.01,,2013-03-19 03:53:00,
2013-03-18 21:03:00,45.0,34.0,30.09,ENE,72,0.0,0.0,64,0.00,,,0.01,,2013-03-19 04:03:00,
2013-03-18 21:12:00,45.0,34.0,30.09,ENE,72,0.0,0.0,64,0.00,,,0.01,,2013-03-19 04:12:00,
2013-03-18 21:22:00,44.0,33.0,30.09,ENE,71,0.0,0.0,65,0.00,,,0.01,,2013-03-19 04:22:00,
2013-03-18 21:33:00,45.0,34.0,30.09,ESE,104,0.0,0.0,65,0.00,,,0.01,,2013-03-19 04:33:00,
2013-03-18 21:42:00,45.0,34.0,30.09,ESE,104,0.0,0.0,65,0.00,,,0.01,,2013-03-19 04:42:00,
2013-03-18 21:52:00,44.0,34.0,30.09,East,85,0.0,0.0,67,0.00,,,0.01,,2013-03-19 04:52:00,
2013-03-18 22:02:00,43.0,34.0,30.08,ENE,69,0.0,0.0,70,0.00,,,0.01,,2013-03-19 05:02:00,
2013-03-18 22:11:00,43.0,34.0,30.08,ENE,69,0.0,0.0,70,0.00,,,0.01,,2013-03-19 05:11:00,
2013-03-18 22:22:00,43.0,34.0,30.08,East,86,0.0,0.0,70,0.00,,,0.01,,2013-03-19 05:22:00,
2013-03-18 22:32:00,43.0,35.0,30.07,East,97,0.0,0.0,72,0.00,,,0.01,,2013-03-19 05:32:00,
2013-03-18 22:42:00,43.0,35.0,30.07,East,97,0.0,0.0,72,0.00,,,0.01,,2013-03-19 05:42:00,
2013-03-18 22:52:00,43.0,35.0,30.07,East,98,0.0,0.0,73,0.00,,,0.01,,2013-03-19 05:52:00,
2013-03-18 23:02:00,42.0,34.0,30.06,East,89,0.0,0.0,74,0.00,,,0.01,,2013-03-19 06:02:00,
2013-03-18 23:12:00,42.0,34.0,30.06,East,89,0.0,0.0,74,0.00,,,0.01,,2013-03-19 06:12:00,
2013-03-18 23:21:00,42.0,34.0,30.06,East,96,0.0,0.0,74,0.00,,,0.01,,2013-03-19 06:21:00,
2013-03-18 23:32:00,41.0,34.0,30.06,ENE,74,0.0,0.0,75,0.00,,,0.01,,2013-03-19 06:32:00,
2013-03-18 23:42:00,41.0,34.0,30.06,ENE,74,0.0,0.0,75,0.00,,,0.01,,2013-03-19 06:42:00,
2013-03-18 23:52:00,41.0,34.0,30.05,East,87,0.0,0.0,75,0.00,,,0.01,,2013-03-19 06:52:00,